Dewpoint
7 1 -21 -7 -4 -3 -5 -1 -2 0 3 0 2 9 9 10 10 11 13 14 13 14 14 10 6 4 1 -2 -2 1 2 2 1 0 -1 -2 -4 -4 -5 -5 -4 -4 -2 1 7 10 11 11 12
8 -1 -12 -4 -5 -3 -2 -3 -1 0 5 5 7 9 10 9 9 13 14 14 14 14 13 11 5 2 -1 -6 -2 -0 -0 -1 -2 -4 -5 -6 -7 -7 -8 -8 -8 -8 -8 -7 -6 -5 -4 0 7
6 -15 -4 -5 -8 -4 -5 -3 -2 4 5 4 4 5 8 6 4 10 14 14 13 13 12 5 2 0 -5 -6 -2 -0 -0 -1 -3 -5 -5 -6 -7 -7 -7 -7 -7 -6 -6 -6 -7 -8 -9 -9 -8
-7 -4 -4 -4 -7 -7 -5 -3 -3 6 0 1 3 4 3 2 3 11 13 12 12 11 11 2 0 -3 -6 -6 -4 -2 -1 -3 -4 -4 -6 -6 -6 -4 -4 -3 -3 -3 -3 -3 -4 -4 -4 -4 -5
-11 -6 -7 -5 -6 -4 -5 -4 1 1 -3 1 2 3 4 2 5 12 11 11 8 3 3 2 -3 -5 -6 -6 -4 -2 -2 -3 -3 -5 -5 -3 -2 -2 -2 -3 -3 -3 -2 -2 -3 -4 -4 -4 -3
-1 -3 -6 -6 -6 -5 -5 -2 1 -3 -3 1 -0 2 2 2 7 9 9 5 2 -1 -2 -4 -5 -6 -5 -5 -4 -3 -3 -3 -4 -3 -2 -1 -0 -1 -1 -2 -2 -2 -2 -1 -1 -2 -2 -2 -3
-1 -6 -5 -6 -6 -3 -4 -4 -3 -5 -4 -1 -0 1 -0 -0 4 5 1 -1 -3 -5 -6 -6 -5 -5 -4 -5 -3 -2 -3 -3 -3 -2 -2 -1 0 -0 -1 -2 -1 0 -1 -0 -1 -1 -2 -1 -1
1 -0 -4 -3 -5 -4 -5 -6 -6 -6 -5 -2 -1 -2 -0 0 -1 -1 -3 -5 -7 -7 -7 -6 -5 -4 -2 -3 -2 -1 -1 -1 -0 -1 -2 -0 -1 -0 -0 -2 -1 0 0 -1 -2 -3 -3 -3 -4
-0 1 -4 -4 -3 -4 -5 -5 -5 -6 -4 -5 -3 -2 -2 0 -2 -2 -5 -6 -6 -8 -9 -7 -2 -4 -2 1 1 1 1 1 0 -1 -1 -1 -1 -0 -0 -2 -2 -2 -2 -2 -3 -4 -5 -6 -6
5 1 -5 -5 -5 -5 -5 -5 -6 -6 -5 -5 -2 -4 -3 -1 -2 -4 -1 -2 -6 -8 -8 -7 -5 -2 0 1 2 3 3 2 0 -1 -1 2 -0 -0 -1 -1 -2 -2 -3 -3 -3 -5 -6 -5 -3
4 1 -3 -4 -3 -3 -4 -5 -6 -6 -5 -6 -4 -2 -2 -2 -3 -2 -2 -1 -6 -8 -6 -6 -5 -1 2 3 3 3 3 2 -1 -0 1 2 2 0 -1 -2 -3 -3 -4 -4 -4 -3 -3 -3 -3
8 5 -2 -3 -3 -4 -4 -5 -7 -6 -6 -7 -4 -4 -2 0 -2 -2 -4 -6 -7 -6 -4 -3 -2 1 2 3 4 3 4 2 4 1 1 3 4 1 -0 -4 -4 -4 -4 -3 -3 -2 -2 -3 -4
7 7 2 -3 -4 -4 -5 -6 -6 -7 -8 -9 -3 -2 0 1 1 -2 -4 -6 -6 -5 -3 -1 -0 0 2 3 3 3 2 2 2 2 1 1 1 -0 1 -1 -2 -6 -6 -7 -8 -8 -10 -10 -11
6 3 1 -5 -5 -5 -5 -5 -5 -7 -8 -6 -3 -1 0 0 -1 -4 -5 -5 -4 -3 -2 0 2 2 3 3 3 2 -0 1 2 1 -0 -3 -5 -5 -6 -2 -6 -8 -9 -9 -9 -9 -9 -9 -10
-1 3 -2 -4 -5 -5 -6 -5 -5 -7 -5 -3 -2 -1 -0 -0 -5 -4 -5 -4 -4 -4 -3 0 2 3 3 3 1 -1 0 1 1 -1 -4 -5 -6 -6 -6 -6 -6 -7 -7 -8 -9 -11 -11 -10 -10
-3 -4 -2 -3 -4 -5 -6 -7 -8 -5 -5 -3 -2 -1 -0 -1 -3 -1 -5 -4 -3 -3 -3 -2 -1 -0 1 1 -1 -1 -0 -0 -2 -5 -7 -8 -8 -8 -8 -8 -8 -10 -12 -12 -10 -9 -7 -5 -7
-3 5 -3 -5 -4 -5 -8 -10 -7 -5 -5 -4 -3 -2 -0 0 0 -1 -3 -3 -2 -2 -2 -2 -1 -0 -1 -0 -1 -0 -0 -2 -6 -7 -8 -9 -9 -10 -10 -11 -11 -12 -11 -9 -8 -8 -7 -4 -6
4 -2 -6 -7 -3 -4 -5 -8 -8 -5 -5 -5 -4 -2 -1 0 0 -0 -2 -2 -1 -1 -1 -1 -2 -1 -1 -0 1 -0 -2 -6 -7 -8 -8 -9 -9 -10 -11 -11 -12 -11 -9 -8 -8 -7 -7 -6 -6
-7 -5 -9 -9 -4 -5 -5 -7 -10 -5 -4 -5 -5 -3 -1 -0 1 -1 -1 -1 -1 -1 -1 -2 -1 -1 -1 -0 -0 -2 -5 -6 -7 -8 -8 -9 -10 -11 -12 -12 -11 -10 -9 -9 -8 -8 -7 -7 -7
-11 -10 -10 -4 -4 -4 -4 -4 -7 -7 -5 -5 -5 -4 -2 -1 0 -0 -1 -1 -1 -1 -1 -2 -3 -4 -3 -3 -4 -5 -6 -7 -7 -8 -8 -9 -10 -11 -12 -11 -11 -11 -10 -10 -9 -8 -8 -6 -7
-8 -11 -8 -7 -4 -5 -4 -6 -5 -6 -7 -5 -5 -4 -3 -1 -1 0 -0 -0 -2 -2 -2 -2 -3 -4 -5 -6 -6 -6 -6 -7 -7 -7 -8 -9 -10 -11 -11 -12 -12 -11 -10 -9 -8 -8 -8 -8 -6
-6 -8 -6 -3 -4 -7 -5 -11 -6 -6 -5 -6 -4 -4 -3 -2 -1 0 1 1 -2 -2 -1 -2 -3 -5 -6 -5 -6 -7 -7 -7 -7 -7 -8 -9 -10 -11 -11 -11 -10 -9 -9 -8 -8 -8 -7 -7 -6
-7 -6 -4 -4 -4 -5 -5 -6 -11 -6 -5 -4 -6 -4 -3 -1 -1 0 0 -2 -2 -1 -1 -1 -4 -6 -6 -6 -7 -7 -7 -6 -6 -7 -8 -9 -10 -10 -10 -9 -9 -8 -7 -6 -6 -6 -6 -7 -7
-4 -3 -3 -3 -4 -4 -11 -8 -10 -7 -7 -7 -5 -4 -3 -1 -0 0 1 -2 -2 -0 -0 -1 -4 -5 -6 -6 -6 -6 -6 -6 -6 -7 -7 -8 -8 -8 -7 -7 -6 -6 -6 -7 -9 -11 -13 -14 -13
-2 -5 2 1 5 -1 -4 -4 -11 -10 -5 -4 -4 -4 -3 -1 0 1 -1 -1 -1 1 1 -3 -5 -5 -6 -6 -6 -5 -5 -6 -6 -7 -7 -8 -8 -8 -8 -8 -8 -9 -10 -11 -13 -16 -18 -17 -6
-2 -6 4 6 2 -4 -2 -3 -6 -6 -5 -5 -3 -3 -2 -1 1 1 -1 -1 0 2 -0 -3 -4 -5 -5 -5 -5 -5 -5 -6 -6 -7 -7 -7 -7 -8 -8 -8 -10 -14 -20 -26 -27 -25 -16 -9 -6
-2 -1 -5 -1 -0 -1 -3 -4 -5 -5 -4 -4 -2 -2 -1 -0 1 2 2 1 1 -1 -2 -3 -4 -4 -4 -4 -4 -5 -5 -6 -5 -6 -6 -7 -7 -8 -10 -15 -22 -26 -27 -26 -25 -21 -17 -10 -6
-3 -5 -2 1 4 -3 -5 -4 -5 -4 -4 -3 -2 -2 -1 0 1 2 2 1 -1 -2 -3 -3 -3 -4 -4 -4 -4 -4 -4 -5 -6 -7 -7 -9 -13 -20 -24 -25 -24 -24 -23 -23 -23 -20 -16 -11 -9
-2 -2 -3 -0 -5 -3 -3 -6 -6 -7 -5 -4 -2 -2 -1 1 1 1 0 -2 -3 -3 -3 -3 -3 -3 -3 -3 -3 -5 -6 -7 -8 -12 -19 -23 -25 -24 -22 -21 -19 -18 -15 -14 -15 -16 -16 -14 -12
-3 -3 -4 -2 -1 -3 -1 0 -6 -5 -5 -4 -2 -2 -1 0 0 -1 -2 -2 -2 -2 -2 -2 -2 -3 -3 -5 -6 -6 -10 -17 -23 -27 -25 -22 -21 -19 -18 -18 -16 -13 -13 -14 -14 -14 -13 -13 -12
Wind_Speed
14 17 10 2 5 5 6 7 2 9 9 5 9 6 5 7 2 2 9 11 14 9 7 5 4 7 8 6 4 2 2 2 2 3 4 5 6 7 7 7 7 7 7 8 9 9 10 10 9
14 15 5 2 5 7 7 7 9 10 8 13 10 7 4 4 6 11 12 16 11 9 8 4 3 6 7 6 3 2 2 2 3 4 5 6 6 7 8 8 8 9 9 10 10 10 10 11 11
13 10 4 3 4 10 5 9 10 11 14 9 6 3 4 7 9 11 15 16 11 8 6 1 2 5 6 4 2 2 2 3 3 4 5 7 8 8 9 9 9 10 11 11 11 10 10 10 11
6 3 0 5 9 3 1 9 11 17 5 6 8 8 5 7 8 11 17 13 10 7 6 1 2 4 4 3 3 2 2 3 4 6 8 8 9 10 10 10 11 11 12 12 12 12 11 10 10
5 2 4 5 8 1 3 9 18 15 10 11 9 7 7 10 13 18 15 13 9 7 4 2 2 3 2 2 3 3 4 5 6 7 8 9 10 10 11 11 11 11 12 12 12 12 12 12 12
4 1 4 9 7 4 4 11 15 11 10 11 7 12 7 13 16 18 15 12 9 7 5 4 3 1 1 2 3 5 6 6 7 8 9 9 10 10 11 11 11 11 11 13 14 14 14 14 14
3 2 3 3 6 6 7 13 14 11 11 10 11 9 7 14 18 17 14 11 8 6 6 5 4 3 3 3 6 7 8 8 8 9 8 8 9 9 11 12 13 12 11 13 14 14 15 16 17
4 4 3 4 6 6 10 13 6 10 8 10 8 6 7 17 20 17 14 10 7 5 5 6 7 6 6 7 9 9 9 8 8 8 8 8 8 8 10 11 13 13 12 13 14 14 15 14 13
13 5 5 3 4 3 12 9 6 5 10 6 6 5 9 24 21 17 13 9 6 5 6 8 9 9 8 10 10 9 8 7 8 9 8 9 10 10 10 11 11 12 12 13 13 14 15 14 15
8 4 3 4 5 2 11 8 13 8 10 6 7 9 16 25 21 17 12 8 6 7 7 9 11 11 11 11 9 7 6 7 7 8 8 9 10 11 11 11 11 11 12 12 13 14 16 19 20
11 6 6 4 5 3 9 6 8 8 9 11 15 17 23 24 20 16 12 8 8 9 9 11 13 13 11 10 8 6 5 6 7 8 8 9 10 11 11 12 13 14 15 15 16 17 18 18 19
11 9 9 7 4 1 5 7 6 13 2 7 10 18 23 22 20 16 12 11 11 11 11 12 14 12 11 9 7 6 4 5 5 6 7 7 8 10 12 14 15 15 16 16 17 18 19 19 19
6 6 11 11 5 4 4 6 4 10 5 8 15 20 21 19 17 15 13 13 12 12 12 13 13 11 11 10 8 6 4 4 4 5 7 9 10 11 12 13 14 16 17 17 18 18 19 19 19
17 15 10 8 2 3 5 4 2 8 11 12 19 19 18 18 17 17 15 14 13 12 13 13 13 12 12 10 8 5 5 5 4 5 8 10 12 12 13 13 14 15 17 17 18 18 19 20 20
22 8 5 8 6 4 3 8 10 7 13 16 19 18 17 17 17 15 14 14 13 14 13 13 13 12 11 9 7 7 6 5 4 6 9 11 12 14 14 15 15 16 17 17 17 17 18 19 21
9 6 7 4 11 3 7 11 11 10 16 18 20 18 18 17 16 15 16 15 14 13 13 13 12 12 11 10 8 7 6 4 4 6 8 11 13 14 14 15 15 15 15 16 17 18 19 18 21
4 6 5 2 11 5 12 6 4 10 15 18 21 20 19 17 16 17 17 16 15 14 14 13 13 12 11 10 9 8 6 5 5 6 8 11 13 14 14 14 14 14 15 16 18 19 20 19 23
14 7 7 19 10 11 11 14 4 10 15 19 21 20 19 18 19 19 18 17 16 15 14 13 13 12 12 11 10 8 6 6 4 6 8 11 13 13 13 13 13 13 14 16 17 19 20 20 25
12 14 9 8 7 10 16 12 13 12 16 19 21 21 20 19 17 20 20 18 17 16 14 13 13 12 12 11 10 9 8 5 2 5 8 11 12 12 11 11 12 13 15 17 19 21 22 23 26
11 14 10 3 6 9 7 15 14 16 20 25 25 23 22 21 19 22 21 20 18 16 16 14 13 12 13 12 12 11 9 4 1 5 8 10 10 10 10 11 12 14 15 17 19 21 23 21 24
8 12 9 2 8 5 4 8 12 14 17 20 24 24 23 25 24 23 23 21 19 18 16 14 13 13 13 13 12 11 8 4 2 6 8 9 9 9 10 11 12 14 16 19 21 23 24 25 20
15 7 8 11 10 4 3 4 7 14 15 17 25 27 26 25 23 23 22 21 20 19 17 15 14 14 14 14 13 10 7 4 4 6 8 8 9 9 11 13 15 17 19 21 22 24 25 25 19
4 8 8 6 4 2 6 4 3 6 13 19 24 28 26 27 26 25 24 22 21 19 17 16 16 16 15 14 12 10 7 4 6 7 8 9 10 11 13 16 18 20 21 23 25 26 26 27 25
17 11 7 4 2 6 11 10 7 7 7 8 22 24 27 27 25 24 22 23 22 20 19 18 17 16 15 14 11 9 6 5 5 7 8 9 10 13 15 18 20 23 25 28 30 31 32 33 33
6 15 4 4 4 6 1 7 11 4 4 3 14 24 26 26 27 26 28 26 24 23 20 19 19 18 16 13 10 7 5 5 6 7 9 12 15 18 21 24 26 28 30 32 34 35 35 32 26
16 10 5 8 6 5 3 8 4 2 3 3 6 18 23 26 27 28 28 27 25 23 22 21 20 17 15 11 8 6 6 6 8 10 13 16 19 23 26 29 30 32 33 33 31 30 28 26 24
8 8 3 6 1 3 6 5 7 6 5 6 13 19 24 27 26 25 25 25 24 23 22 21 19 16 13 10 7 7 7 8 11 14 16 20 24 27 29 31 32 32 32 33 33 32 31 27 25
3 11 4 2 6 6 5 5 4 11 12 10 14 21 23 24 24 22 24 24 22 22 22 20 18 15 12 9 8 8 9 11 14 18 21 25 27 29 29 29 31 32 33 33 32 31 28 27 26
5 6 2 2 3 4 4 4 1 5 14 15 17 21 24 24 23 22 21 22 23 22 20 19 17 14 12 9 8 9 12 15 19 23 25 26 28 28 29 30 31 31 29 27 28 29 29 27 27
4 7 10 5 6 2 2 2 2 6 8 13 19 21 22 23 23 22 24 24 23 21 20 18 15 12 10 8 9 12 16 19 22 24 25 27 28 28 29 31 30 29 29 29 29 29 28 29 30
Wind_Direction
314 328 323 277 226 236 212 179 143 161 164 124 142 188 182 24 348 32 145 154 149 135 123 115 68 32 17 7 22 44 38 23 6 353 346 333 330 334 335 334 335 332 325 315 308 305 302 306 308
313 325 311 230 244 219 202 155 182 159 121 129 118 127 144 99 92 129 132 148 141 137 126 112 37 17 4 8 45 68 61 26 357 350 344 344 348 350 349 348 344 340 335 329 327 323 321 313 305
315 322 262 235 235 236 235 178 155 139 136 149 126 92 126 124 124 145 147 153 141 140 131 130 23 0 357 20 55 58 25 8 5 11 20 18 17 20 23 24 22 20 16 9 3 351 339 322 309
325 304 355 233 222 216 266 160 156 147 149 153 147 126 111 149 142 148 157 152 146 146 128 205 326 343 359 35 65 78 56 51 49 39 34 36 38 37 34 31 32 34 31 28 25 22 15 1 344
294 238 224 229 217 202 193 162 166 162 147 156 161 142 133 155 154 154 159 157 155 173 172 226 288 323 8 65 85 94 88 73 57 50 52 51 48 44 42 38 31 27 31 34 32 29 23 21 19
254 227 227 220 196 171 180 164 168 169 153 150 148 144 137 166 157 161 164 170 176 197 217 245 256 244 127 97 109 111 98 82 72 64 61 59 56 49 41 35 33 32 31 27 23 24 24 20 17
351 274 249 274 205 178 173 167 179 174 159 162 155 147 146 163 167 168 169 174 189 209 216 214 208 182 148 118 123 114 101 89 73 60 56 57 53 44 34 29 29 31 29 26 21 14 12 13 13
28 294 263 228 204 193 157 166 184 176 156 144 166 175 165 178 171 171 175 184 191 205 202 195 182 168 139 132 123 116 107 86 63 52 59 59 48 38 33 31 32 32 27 19 14 12 12 7 2
69 280 247 264 187 162 156 172 157 165 146 156 176 156 156 176 174 174 177 182 192 190 183 175 166 161 146 136 127 122 103 80 61 58 58 52 43 36 28 28 29 27 22 15 9 5 2 359 360
123 272 250 348 291 354 179 192 164 168 162 178 168 174 160 171 174 174 169 174 176 170 166 165 162 155 149 142 135 125 103 80 63 62 50 43 35 32 29 27 23 15 10 5 359 358 356 359 0
158 211 356 326 304 314 199 197 176 176 196 199 192 169 162 169 172 173 173 170 174 167 161 159 160 155 151 149 143 133 108 75 66 65 51 43 32 24 21 17 11 6 2 360 357 357 360 1 2
160 210 291 312 327 296 204 181 198 201 169 196 181 177 167 168 174 175 179 178 172 164 159 156 159 159 161 160 152 143 110 77 80 66 49 38 27 18 12 6 5 5 3 0 360 359 358 359 359
169 123 280 263 269 262 210 211 239 215 192 172 164 169 168 167 170 175 177 175 171 166 161 159 162 165 168 164 154 143 125 106 90 56 36 28 19 13 11 9 5 2 1 360 0 359 359 359 1
173 142 242 249 223 243 232 221 220 205 192 168 171 169 169 171 175 178 173 173 171 168 166 161 159 158 158 158 156 154 140 122 80 40 24 17 16 15 11 10 8 6 6 6 8 8 8 11 13
129 125 259 244 219 226 208 238 229 186 176 170 171 173 172 173 178 177 174 174 173 171 169 168 166 163 163 166 166 152 136 115 68 33 25 22 16 14 14 13 11 10 11 11 13 14 14 14 17
149 159 182 172 175 202 192 246 210 180 176 179 177 177 173 176 175 175 176 177 173 172 170 170 168 168 170 170 164 154 139 116 75 52 36 23 18 15 12 9 9 12 14 16 16 12 10 7 6
207 173 214 345 200 166 209 245 152 180 189 183 182 181 176 174 173 176 178 176 175 174 174 174 173 174 172 169 166 156 145 127 96 57 31 20 14 11 10 10 11 11 9 6 7 6 3 359 357
176 170 201 221 196 211 207 240 187 192 194 191 188 186 183 181 179 177 179 179 179 180 178 176 176 175 174 172 169 164 154 138 95 40 18 12 8 7 6 5 3 2 360 356 357 355 356 354 351
186 200 197 201 180 196 219 239 222 194 203 200 195 193 191 185 179 182 184 184 185 185 184 184 186 186 186 183 178 171 164 148 83 17 4 1 0 358 357 356 354 352 349 349 348 349 348 347 345
174 185 193 145 177 212 209 243 231 202 209 204 199 197 193 182 179 183 187 188 188 190 189 189 190 191 192 189 186 180 174 166 18 350 348 349 349 347 346 346 344 343 343 342 341 342 345 346 346
198 209 179 205 165 212 253 252 208 212 210 207 209 205 196 189 183 183 186 187 190 192 192 191 191 189 187 185 183 183 184 193 305 330 333 335 336 338 337 337 337 336 336 336 337 336 337 337 338
211 193 162 149 181 230 235 256 202 195 205 207 201 199 194 189 186 183 181 185 189 191 191 189 188 184 182 180 182 184 189 214 277 311 320 325 327 326 327 328 328 329 329 327 328 328 330 331 330
173 153 148 154 163 249 188 250 199 169 217 212 204 198 194 189 184 183 186 188 187 190 189 186 185 182 180 181 179 185 206 248 294 311 319 321 320 320 321 322 322 321 320 319 319 320 321 321 318
138 120 92 104 154 248 224 225 228 194 215 205 198 195 191 185 183 182 182 186 188 188 187 187 185 183 183 182 189 207 238 277 299 311 312 312 315 317 317 317 317 317 317 316 315 313 311 310 307
189 162 144 193 193 236 159 217 252 186 165 160 193 188 184 180 176 177 183 184 188 188 186 186 186 188 188 192 205 226 253 279 299 306 311 313 313 314 314 313 313 313 312 311 310 308 306 304 295
182 198 185 188 193 192 144 227 227 149 160 176 179 174 171 173 176 180 183 185 186 188 188 188 189 191 193 200 216 239 263 289 303 308 309 310 311 310 310 310 310 310 310 311 312 311 309 306 298
168 211 70 103 27 205 189 239 225 167 170 161 150 160 168 171 173 173 177 182 185 187 187 190 192 194 200 209 226 251 276 293 301 304 306 307 307 306 305 306 307 309 310 311 311 310 307 302 297
233 145 161 232 181 219 192 257 238 191 185 165 165 169 166 167 166 167 172 177 180 185 187 189 193 199 207 221 240 261 280 292 298 303 304 303 302 304 306 308 309 309 310 311 311 308 304 299 295
156 188 201 181 277 225 195 213 34 200 175 173 171 169 165 163 163 162 167 175 181 185 188 192 197 205 213 225 245 271 287 295 299 300 301 303 305 307 307 307 307 308 307 307 306 304 302 298 294
253 201 186 192 188 225 355 237 117 112 141 166 163 161 161 161 161 165 173 178 180 184 187 191 195 201 212 236 262 279 291 296 298 301 305 307 307 306 306 305 305 303 302 302 300 299 296 294 291
Height
1540 1539 1537 1536 1538 1528 1525 1532 1529 1534 1537 1542 1543 1544 1544 1548 1546 1550 1557 1560 1562 1565 1566 1565 1565 1565 1565 1565 1564 1564 1563 1563 1563 1562 1561 1560 1559 1557 1556 1555 1554 1553 1551 1550 1549 1548 1547 1546 1546
1538 1538 1536 1534 1531 1529 1520 1525 1530 1532 1538 1543 1545 1547 1548 1551 1554 1555 1558 1560 1563 1565 1566 1565 1565 1565 1565 1564 1564 1563 1563 1563 1563 1562 1561 1559 1558 1557 1556 1554 1553 1552 1550 1549 1548 1547 1546 1545 1544
1537 1537 1537 1530 1526 1523 1519 1524 1527 1536 1540 1542 1544 1548 1550 1552 1554 1557 1558 1560 1563 1564 1565 1564 1565 1565 1564 1564 1564 1563 1563 1563 1562 1562 1561 1560 1558 1557 1556 1554 1553 1552 1550 1549 1547 1546 1545 1544 1542
1537 1537 1536 1529 1524 1521 1522 1524 1529 1536 1541 1542 1543 1547 1551 1551 1554 1556 1558 1560 1563 1564 1565 1564 1565 1565 1564 1564 1564 1563 1563 1563 1562 1562 1560 1559 1558 1557 1556 1555 1553 1552 1550 1549 1547 1546 1544 1542 1541
1536 1534 1530 1527 1522 1525 1527 1527 1530 1533 1537 1541 1543 1546 1550 1551 1553 1555 1558 1560 1563 1563 1564 1564 1564 1564 1564 1564 1564 1563 1563 1563 1563 1562 1561 1560 1560 1559 1557 1556 1555 1553 1551 1550 1548 1546 1544 1542 1541
1537 1533 1529 1525 1522 1526 1528 1529 1530 1532 1537 1541 1543 1546 1550 1551 1553 1555 1558 1560 1561 1563 1563 1564 1564 1564 1564 1564 1564 1564 1564 1564 1564 1563 1562 1561 1560 1559 1558 1557 1555 1553 1552 1551 1549 1547 1545 1544 1542
1533 1530 1528 1525 1521 1526 1525 1530 1530 1532 1536 1540 1543 1545 1549 1551 1552 1554 1557 1559 1560 1562 1562 1563 1563 1564 1564 1564 1564 1565 1565 1565 1564 1564 1563 1562 1561 1560 1559 1557 1556 1554 1553 1551 1549 1548 1545 1543 1541
1536 1537 1531 1528 1524 1521 1526 1530 1531 1533 1535 1538 1541 1541 1546 1548 1551 1553 1556 1558 1559 1560 1561 1561 1563 1563 1564 1564 1565 1565 1565 1566 1565 1564 1563 1562 1561 1560 1559 1558 1556 1555 1553 1552 1550 1548 1546 1544 1543
1531 1539 1532 1526 1528 1521 1527 1529 1532 1533 1535 1538 1539 1541 1541 1544 1549 1553 1555 1557 1558 1559 1559 1560 1562 1563 1564 1565 1565 1566 1566 1566 1565 1564 1564 1563 1562 1561 1560 1558 1556 1555 1554 1553 1551 1548 1546 1544 1542
1535 1541 1530 1531 1530 1523 1527 1529 1531 1534 1535 1537 1538 1538 1539 1543 1548 1551 1554 1556 1557 1558 1558 1559 1561 1563 1564 1565 1566 1566 1566 1566 1566 1566 1565 1564 1563 1561 1560 1559 1557 1555 1553 1552 1551 1549 1546 1542 1540
1534 1540 1534 1531 1531 1528 1529 1531 1531 1531 1533 1532 1534 1536 1538 1542 1547 1550 1553 1555 1556 1557 1558 1559 1560 1562 1564 1565 1566 1566 1567 1567 1566 1566 1565 1565 1563 1562 1560 1559 1557 1555 1553 1551 1549 1547 1545 1543 1540
1527 1529 1537 1530 1530 1530 1531 1530 1529 1530 1530 1531 1533 1535 1537 1541 1545 1548 1551 1553 1555 1556 1557 1558 1560 1562 1563 1565 1566 1566 1567 1567 1567 1566 1566 1565 1564 1562 1561 1559 1557 1555 1553 1551 1549 1547 1544 1542 1540
1517 1521 1533 1535 1532 1531 1531 1530 1528 1528 1529 1530 1532 1535 1538 1541 1544 1547 1549 1552 1553 1555 1556 1558 1559 1561 1562 1564 1565 1566 1567 1567 1567 1566 1565 1565 1564 1562 1561 1559 1557 1554 1553 1550 1548 1546 1544 1542 1540
1511 1524 1535 1534 1531 1531 1531 1530 1529 1526 1527 1529 1531 1535 1537 1540 1543 1545 1548 1550 1552 1554 1556 1557 1559 1560 1562 1564 1565 1565 1566 1566 1567 1566 1565 1564 1563 1561 1560 1558 1556 1554 1552 1550 1548 1546 1544 1541 1539
1511 1528 1534 1530 1531 1529 1530 1528 1523 1524 1525 1529 1531 1535 1537 1539 1542 1544 1547 1549 1551 1553 1555 1556 1558 1560 1561 1563 1564 1564 1565 1566 1566 1566 1565 1563 1562 1560 1559 1557 1555 1553 1552 1550 1548 1546 1544 1542 1540
1519 1524 1532 1526 1527 1527 1531 1513 1515 1521 1524 1527 1530 1534 1536 1538 1541 1543 1545 1548 1550 1552 1554 1555 1557 1559 1561 1562 1563 1564 1564 1565 1566 1565 1564 1563 1562 1560 1558 1557 1555 1553 1552 1550 1549 1546 1544 1541 1539
1512 1510 1520 1517 1524 1527 1528 1510 1518 1520 1522 1524 1528 1532 1534 1537 1539 1541 1544 1546 1549 1551 1553 1554 1556 1558 1560 1561 1562 1563 1564 1564 1565 1565 1564 1563 1562 1560 1558 1556 1555 1553 1552 1550 1548 1546 1543 1541 1538
1497 1510 1516 1514 1518 1525 1522 1513 1516 1519 1520 1521 1526 1529 1532 1534 1537 1539 1542 1545 1547 1549 1552 1553 1555 1557 1559 1560 1561 1562 1563 1563 1564 1564 1564 1563 1561 1560 1558 1556 1555 1553 1552 1550 1548 1546 1543 1540 1537
1494 1501 1508 1510 1517 1516 1513 1509 1509 1515 1519 1519 1521 1525 1529 1532 1535 1537 1540 1543 1546 1548 1550 1552 1554 1556 1558 1559 1560 1561 1562 1562 1563 1563 1563 1562 1561 1559 1558 1556 1554 1552 1551 1549 1547 1545 1542 1539 1536
1499 1500 1506 1516 1517 1515 1511 1506 1505 1510 1510 1512 1515 1520 1524 1529 1531 1534 1538 1541 1544 1546 1548 1551 1553 1555 1557 1558 1559 1560 1561 1561 1562 1562 1562 1560 1559 1558 1557 1556 1554 1552 1550 1548 1546 1544 1541 1539 1535
1499 1495 1502 1500 1513 1513 1510 1495 1495 1500 1505 1508 1511 1515 1520 1523 1527 1531 1535 1538 1542 1545 1547 1549 1552 1554 1555 1557 1558 1559 1560 1561 1561 1561 1560 1559 1558 1557 1556 1554 1553 1551 1549 1547 1545 1543 1540 1538 1536
1496 1498 1499 1505 1501 1495 1508 1484 1485 1488 1497 1501 1504 1508 1513 1519 1525 1528 1532 1536 1540 1543 1545 1547 1550 1552 1554 1556 1557 1558 1559 1560 1560 1559 1558 1557 1556 1554 1553 1552 1551 1549 1547 1546 1544 1541 1538 1536 1534
1488 1499 1500 1503 1501 1501 1503 1499 1468 1493 1491 1490 1495 1501 1508 1514 1519 1523 1529 1533 1537 1541 1543 1545 1548 1550 1552 1554 1556 1557 1558 1558 1557 1557 1556 1556 1554 1553 1552 1550 1549 1547 1545 1543 1540 1538 1536 1533 1531
1496 1497 1502 1504 1501 1502 1482 1489 1467 1474 1475 1478 1488 1496 1502 1509 1515 1521 1527 1530 1534 1538 1540 1543 1546 1548 1550 1552 1554 1555 1555 1555 1555 1555 1554 1554 1552 1551 1550 1548 1546 1544 1542 1540 1537 1534 1531 1528 1525
1491 1486 1503 1507 1509 1494 1505 1502 1464 1472 1477 1480 1482 1490 1497 1504 1511 1517 1522 1527 1531 1535 1538 1541 1544 1546 1548 1549 1551 1552 1552 1552 1552 1552 1552 1551 1550 1548 1546 1544 1542 1539 1537 1534 1531 1527 1524 1521 1519
1483 1474 1481 1493 1491 1477 1510 1486 1461 1474 1479 1481 1482 1487 1494 1501 1508 1513 1519 1524 1528 1532 1535 1539 1541 1543 1545 1547 1548 1549 1550 1550 1550 1550 1549 1548 1547 1545 1542 1539 1536 1533 1531 1527 1523 1519 1516 1513 1511
1480 1482 1480 1489 1505 1485 1473 1471 1467 1475 1479 1480 1482 1487 1492 1499 1505 1511 1516 1522 1526 1530 1534 1537 1539 1542 1544 1545 1546 1547 1547 1547 1547 1546 1545 1544 1542 1539 1536 1533 1530 1527 1524 1521 1517 1513 1510 1507 1504
1475 1476 1482 1485 1493 1477 1470 1472 1446 1468 1471 1477 1482 1486 1492 1499 1504 1510 1515 1520 1525 1529 1532 1535 1537 1540 1542 1543 1544 1545 1545 1544 1544 1542 1541 1539 1536 1533 1530 1527 1524 1521 1518 1514 1511 1507 1503 1500 1497
1477 1473 1476 1471 1469 1457 1460 1452 1454 1455 1462 1472 1479 1485 1491 1497 1503 1509 1514 1519 1523 1527 1530 1533 1535 1537 1539 1540 1541 1542 1542 1541 1540 1538 1536 1533 1530 1527 1524 1521 1518 1515 1512 1509 1505 1500 1496 1493 1490
1466 1461 1460 1457 1474 1476 1470 1453 1463 1465 1467 1472 1479 1485 1491 1497 1502 1508 1512 1517 1521 1525 1528 1530 1533 1535 1537 1538 1538 1538 1538 1537 1535 1533 1531 1528 1524 1521 1518 1515 1512 1509 1505 1502 1498 1493 1490 1486 1482